Regional Weather Roundup
Issued by NWS Tiyan, Guam

Home | Current Version | Previous Version | Text Only | Print | Product List | Glossary On
Versions: 1 2 3 4 5 6 7 8 9 10 11 12 13 14 15 16 17 18 19 20 21 22 23 24 25 26 27
000
ASGM40 PGUM 240812
RWRGUM
WEATHER ROUNDUP FOR THE MARIANAS
NATIONAL WEATHER SERVICE TIYAN GU
600 PM CHST WED MAY 24 2017

GUZ001>004-240900-
MARIANA ISLANDS-

CITY           SKY/WX    TMP DP  RH WIND       PRES   REMARKS
GUAM AIRPORT   PTCLDY    84  75  74 SE8       29.83R HX  92
ANDERSEN AFB   CLEAR     82  73  74 SE7       29.84R
ROTA AIRPORT   PTCLDY    82  75  78 E8        29.82R
TINIAN AP      PTCLDY   102  73  39 E7        29.81R HX 114
SAIPAN AP      MOCLDY    86  73  66 SE8       29.82R HX  93

$$





USA.gov is the U.S. government's official web portal to all federal, state and local government web resources and services.